RH
85 85 85 85 84 84 83 83 84 81 82 82 81 81 81 82 82 84 84 86 87 86 87 87 85 87 90 41 22 57 69 68 47 43 43 50 56 63 55 57 58 66 53 42 42 43 43
86 86 85 85 84 85 84 83 83 84 84 82 82 82 81 82 82 83 84 85 87 89 88 86 84 88 73 26 40 64 62 59 33 45 38 46 50 57 62 60 53 46 49 46 42 42 40
88 86 86 84 84 84 84 83 83 83 83 83 83 83 82 82 82 82 84 85 87 90 87 85 83 80 50 13 40 60 36 43 49 43 44 48 46 48 54 58 46 48 49 44 38 42 40
86 86 90 84 84 85 84 84 84 83 86 84 84 85 83 82 83 83 85 86 87 88 85 83 84 82 15 23 48 34 31 46 51 55 54 49 47 54 55 49 48 52 50 51 36 37 37
86 86 87 85 85 85 85 85 85 84 85 85 85 86 86 83 84 85 87 89 89 85 81 81 82 60 17 47 34 31 32 43 51 53 47 37 46 61 55 54 52 54 55 54 42 37 37
86 86 86 86 86 85 86 86 86 85 86 85 86 88 89 86 86 89 95 92 81 83 76 66 50 36 23 21 32 30 33 41 48 55 52 53 63 64 65 52 44 45 48 44 47 38 40
86 86 86 85 86 85 85 89 89 86 85 86 86 89 92 90 92 94 83 75 32 33 65 10 12 16 16 13 28 34 32 41 49 51 66 60 60 61 38 38 38 44 50 46 42 35 45
85 85 85 85 84 85 84 89 90 90 87 86 88 90 93 91 92 93 87 36 31 29 32 25 29 18 14 12 10 32 32 43 54 61 56 61 67 44 43 41 40 39 42 42 39 36 43
85 84 85 85 84 85 85 89 90 90 88 87 88 92 93 91 92 88 40 26 29 44 31 17 26 22 17 11 11 13 31 41 47 49 54 56 39 35 45 47 45 44 38 36 35 34 46
85 84 84 85 84 84 85 88 89 90 89 88 89 92 93 90 62 44 33 39 33 28 24 15 20 14 17 11 12 9 30 30 34 46 45 43 39 34 57 50 43 49 32 31 34 42 45
85 85 84 84 83 84 86 88 90 90 89 89 90 91 93 94 41 33 22 39 34 17 24 15 18 14 16 12 14 10 15 16 22 25 23 25 34 49 50 44 37 39 33 37 34 45 33
83 87 84 84 86 86 86 88 90 89 89 89 90 92 91 94 89 39 38 34 18 21 23 14 11 12 14 12 12 11 9 9 13 15 20 18 35 42 40 39 39 34 36 23 31 33 37
84 85 84 83 86 88 88 89 89 89 88 89 90 92 93 51 20 33 31 21 25 22 17 13 14 12 14 14 11 13 15 21 17 29 16 12 17 20 28 18 17 38 28 27 24 30 26
83 84 84 84 86 88 89 89 88 88 88 89 92 94 92 53 47 33 20 19 26 20 20 17 16 17 18 17 19 19 17 21 20 16 20 19 15 17 15 16 21 26 28 23 35 31 27
83 84 84 85 88 89 89 89 88 87 88 90 91 68 55 40 54 31 19 24 20 21 16 17 18 21 24 23 24 22 25 22 24 23 30 25 21 15 14 16 14 22 25 25 26 53 33
81 82 84 86 88 88 89 88 87 87 89 90 70 51 32 40 34 19 20 36 24 19 17 20 26 26 27 23 25 26 25 18 17 21 27 31 25 22 16 15 15 27 16 24 25 30 34
89 86 83 87 88 88 89 88 87 88 89 91 54 28 28 40 24 26 32 32 23 16 17 20 26 24 27 27 30 31 27 18 18 18 24 47 32 22 20 22 26 21 25 26 25 28 25
90 89 83 86 88 88 88 88 87 88 90 88 52 23 28 20 19 40 24 25 29 15 16 17 19 21 24 25 28 29 22 22 16 22 26 38 33 35 28 22 24 21 25 28 28 34 33
85 85 85 87 87 87 88 89 88 87 88 97 60 58 37 20 24 34 34 20 17 16 18 19 19 20 26 26 36 26 22 17 18 27 30 35 34 38 28 22 26 27 26 35 32 36 32
84 85 84 85 86 87 87 88 89 87 88 85 51 31 44 43 55 55 54 25 20 15 20 21 20 20 21 24 25 28 23 18 19 31 40 41 40 33 30 35 30 28 23 24 32 34 38
83 83 83 84 86 86 86 87 89 89 90 70 69 72 76 61 50 54 39 28 25 22 20 23 27 22 26 48 28 30 29 24 22 30 26 21 22 55 42 27 27 24 21 19 23 25 26
82 82 82 82 83 85 86 85 89 92 90 83 74 83 87 78 75 52 55 42 33 30 28 31 30 28 28 44 25 28 27 32 26 27 29 29 27 51 28 23 24 22 21 20 20 29 26
81 81 81 80 81 81 83 84 87 92 90 92 97 92 82 72 64 56 60 53 38 38 31 28 28 30 32 28 22 22 24 29 42 35 28 30 30 34 42 31 26 29 24 34 56 61 52
82 82 80 79 79 79 79 79 85 90 90 97 98 97 71 43 60 52 51 46 42 44 41 32 32 32 30 24 27 29 34 39 32 37 30 32 34 40 39 43 44 30 53 42 54 58 61
81 77 79 79 79 78 77 77 79 87 93 98 98 97 89 64 69 52 52 50 47 47 47 40 35 38 39 29 32 34 37 42 39 46 36 31 37 43 40 45 37 39 56 56 64 55 59
81 76 78 79 77 77 77 74 75 84 91 99 98 98 96 86 53 60 57 55 56 60 48 45 42 44 32 38 35 51 44 45 44 47 60 63 48 46 57 63 57 43 54 49 54 74 58
77 77 77 74 74 73 74 75 74 78 87 96 99 95 97 94 89 76 67 50 54 69 66 66 53 43 41 46 46 48 48 51 56 62 73 69 81 68 77 74 63 58 51 52 70 62 56
78 72 73 76 72 70 71 73 74 75 82 93 95 97 97 97 93 80 68 64 67 71 64 58 41 47 45 54 56 62 61 61 68 63 73 63 75 90 92 93 81 54 51 63 58 55 56
71 69 69 68 73 68 72 72 73 74 81 86 98 91 93 99 83 84 71 59 54 51 57 72 49 57 50 60 72 74 65 72 77 63 71 67 71 75 76 70 56 55 49 47 51 58 54
Wind_Speed
20 21 21 22 22 22 22 21 20 20 19 18 16 15 14 14 14 13 13 13 13 13 12 11 10 8 1 2 9 4 12 10 7 2 2 2 3 4 4 4 4 3 4 5 10 11 9
21 22 22 22 22 22 22 22 21 20 19 19 17 15 14 13 13 12 12 12 13 13 12 11 9 5 2 3 2 8 9 10 6 3 2 5 6 5 2 1 3 2 6 13 8 3 2
21 22 22 23 23 23 23 23 22 22 21 19 18 15 14 13 12 12 11 12 12 13 12 10 8 3 2 9 2 7 8 5 4 3 2 2 1 1 4 3 2 2 5 7 3 1 2
23 23 21 23 23 23 24 23 23 22 21 21 19 16 14 12 11 11 10 11 12 12 11 8 5 2 7 3 5 9 3 4 3 2 4 3 3 3 0 5 2 0 3 5 6 7 3
24 24 22 24 24 24 24 25 25 23 22 21 19 17 14 11 10 9 8 10 11 10 6 3 2 1 8 2 4 5 3 7 4 3 5 3 3 0 3 2 3 5 1 1 7 4 2
24 24 24 25 24 25 25 26 25 24 23 22 20 18 15 11 9 8 7 7 2 4 3 3 4 2 1 6 5 9 3 9 4 3 5 6 4 3 1 2 4 5 4 3 4 3 2
25 26 26 26 27 27 27 25 25 26 24 23 21 18 14 10 7 5 3 4 4 3 0 8 4 3 3 6 7 4 7 5 5 5 2 4 4 5 5 6 4 2 0 4 4 6 3
25 26 27 27 28 28 29 27 26 25 25 24 22 19 13 8 5 1 0 3 5 4 5 7 4 7 5 3 3 6 13 7 5 5 5 5 6 10 4 1 2 10 6 6 6 4 5
26 26 27 27 28 29 28 27 27 26 25 24 22 17 12 6 3 1 3 6 3 2 3 7 5 5 5 7 6 8 18 5 5 8 9 8 9 1 4 5 3 9 6 5 5 5 2
26 27 27 28 28 29 29 28 28 26 25 24 21 17 12 4 1 4 4 3 2 5 6 6 3 8 5 6 6 7 14 8 4 12 4 8 1 5 2 7 6 8 7 11 5 4 5
26 26 28 28 29 29 29 30 30 28 26 24 20 16 11 6 2 2 3 2 5 4 5 2 3 1 0 9 2 3 5 2 7 6 8 13 1 4 6 11 6 14 5 4 7 4 2
27 25 28 28 28 28 30 30 30 29 27 25 21 14 6 2 1 7 6 1 4 7 3 3 3 2 5 2 2 2 3 6 3 5 2 6 1 7 8 4 8 8 6 5 5 4 0
26 27 28 28 27 28 30 31 31 31 30 27 23 10 5 1 3 2 4 5 7 5 3 7 4 5 3 5 5 7 1 3 2 1 3 5 3 3 4 3 4 5 7 5 7 6 6
26 27 28 28 28 29 30 31 32 33 32 30 25 2 9 4 4 3 4 7 5 2 1 2 4 3 6 6 3 7 4 3 5 5 3 3 7 1 0 2 2 1 6 6 3 2 6
26 28 28 28 29 30 31 32 33 34 33 32 16 0 2 4 5 2 7 5 6 4 3 4 4 7 7 5 3 5 4 4 3 4 4 3 4 5 5 4 3 1 1 4 5 2 3
25 27 28 28 29 30 32 33 34 35 35 28 2 2 2 3 4 5 7 4 1 2 1 4 4 3 3 7 5 5 4 4 7 4 2 1 2 2 5 1 4 4 2 1 3 2 3
22 25 27 27 29 30 32 34 34 36 37 21 3 4 4 1 3 7 4 3 2 2 2 4 3 3 2 1 2 3 1 4 4 7 6 3 4 7 4 6 1 5 4 5 4 5 6
22 23 27 27 28 30 32 34 35 34 36 8 3 4 3 3 6 2 2 1 3 5 7 5 6 4 2 2 2 3 3 2 9 3 3 4 5 2 3 7 4 2 4 5 6 3 1
24 25 26 26 28 29 31 33 35 33 29 4 3 3 4 4 4 3 5 3 3 6 5 3 4 4 2 3 2 2 2 4 7 4 1 3 1 3 7 8 4 4 3 5 5 3 3
22 24 26 27 27 28 30 32 34 36 31 2 3 4 6 7 2 3 2 3 2 5 4 4 4 5 4 4 5 2 3 2 4 2 7 4 3 7 8 5 3 3 2 2 4 4 3
23 24 25 26 26 27 28 30 32 36 35 2 5 1 3 4 5 4 1 3 2 4 4 7 4 4 1 2 2 0 1 5 3 5 3 5 3 1 2 2 1 4 7 8 8 7 7
21 23 24 25 25 25 26 28 30 34 32 7 4 4 5 1 3 3 4 2 2 3 2 2 4 1 1 3 5 4 4 3 5 2 3 3 1 0 0 1 3 6 7 8 6 2 6
21 21 22 23 24 25 24 25 26 28 17 4 2 2 3 3 4 2 1 2 2 1 2 3 3 3 2 2 4 6 5 3 1 4 4 2 4 3 5 4 7 7 3 2 3 2 2
19 19 21 22 23 23 23 23 23 22 18 0 1 1 3 3 1 2 2 2 2 3 1 0 2 3 1 5 2 5 5 4 5 3 3 5 5 2 3 3 3 6 5 2 3 4 4
17 19 19 19 20 21 22 21 21 19 19 2 2 2 2 3 2 3 1 2 3 4 1 2 2 0 3 6 4 6 5 4 5 6 4 3 5 3 4 3 6 1 4 3 2 4 4
16 18 18 18 19 19 20 20 20 18 17 3 2 0 1 3 4 1 2 1 1 2 5 2 3 3 6 4 4 2 3 1 2 4 5 5 5 5 3 4 7 5 4 5 2 6 4
16 16 16 17 18 18 18 19 19 18 16 4 3 2 2 1 4 4 4 3 3 2 2 3 6 5 4 3 3 3 3 1 1 1 1 3 3 2 2 4 8 3 6 1 4 4 5
14 15 15 15 16 16 16 17 16 16 16 7 4 3 2 1 7 5 4 4 2 2 3 3 4 3 3 4 3 3 2 2 1 2 2 3 3 3 2 1 7 6 3 2 7 5 6
14 14 14 15 15 15 15 16 15 15 13 9 2 3 1 3 7 3 6 6 6 5 5 2 3 3 4 5 1 3 1 2 3 3 1 2 6 4 8 7 6 5 7 7 6 8 11
Wind_Direction
9 7 4 1 359 357 354 351 346 344 339 333 325 317 307 299 293 291 292 295 299 301 309 315 319 322 307 262 253 108 146 148 104 78 155 120 143 160 216 157 165 220 272 279 269 269 260
7 4 2 359 357 355 354 351 348 345 340 336 329 320 310 298 289 284 283 285 290 294 305 310 309 316 250 284 63 131 129 115 131 139 215 151 201 203 121 239 175 210 279 286 298 278 272
4 2 359 358 356 355 354 353 350 347 345 340 335 325 316 302 289 280 277 278 283 290 300 300 292 247 235 237 10 109 105 109 120 205 129 270 199 164 138 195 235 265 320 334 310 103 231
3 1 357 358 355 353 351 351 350 348 343 341 338 332 324 311 295 282 275 276 279 289 297 288 257 229 247 354 102 111 100 76 91 94 123 126 93 99 152 327 184 33 63 13 307 346 107
2 360 356 356 354 352 347 347 347 348 346 343 339 335 330 322 304 290 277 277 282 288 270 277 165 224 273 308 127 140 115 139 97 21 52 79 55 322 3 358 31 351 262 255 316 312 293
359 358 356 355 353 350 346 344 346 346 345 345 341 336 332 328 313 297 284 266 269 297 222 205 259 346 303 248 154 127 175 135 108 69 5 23 43 339 4 77 347 306 352 332 256 281 259
356 355 354 353 351 349 345 341 342 344 345 344 342 337 330 329 320 304 333 112 32 2 275 193 206 253 0 308 120 132 149 104 106 73 182 348 5 246 268 347 9 327 284 271 251 253 290
357 355 354 352 351 348 344 339 340 340 343 342 340 335 330 331 329 269 355 153 205 187 313 232 238 282 233 291 348 103 146 156 152 150 122 24 249 250 351 177 243 293 282 260 274 269 167
357 355 353 352 350 347 343 338 337 337 340 340 337 331 330 332 97 150 191 230 103 81 130 295 193 215 212 148 221 200 168 153 176 147 189 170 235 88 179 266 231 250 258 300 268 339 303
356 355 352 351 350 346 342 337 336 336 337 337 335 329 325 319 256 168 241 240 192 178 68 280 269 272 171 160 281 178 183 152 193 193 202 220 262 223 142 257 149 280 203 261 298 52 291
357 355 353 352 351 346 341 337 335 335 335 334 331 324 312 234 281 195 155 293 123 70 56 201 198 93 37 156 276 32 162 46 156 169 127 246 233 183 210 224 149 246 336 278 289 206 345
358 353 354 353 349 343 341 336 334 334 334 331 328 321 305 126 226 245 305 352 64 42 16 22 87 162 119 316 297 338 86 48 111 153 311 273 297 175 220 266 193 267 348 22 42 93 276
356 355 354 352 346 342 340 338 336 334 334 332 325 307 214 270 222 267 311 54 41 98 327 332 339 30 75 8 20 39 113 64 114 53 328 326 236 278 199 304 36 95 58 340 1 12 219
357 356 354 350 346 345 343 340 338 337 336 333 328 325 200 233 305 322 50 51 74 263 305 5 19 36 70 358 12 11 51 65 27 88 88 100 325 145 122 207 196 116 130 150 259 265 288
357 355 354 350 347 346 345 343 341 339 340 338 323 42 127 269 205 28 72 67 189 208 298 14 30 64 353 1 21 75 63 0 298 33 113 94 296 316 25 342 93 161 2 180 121 17 35
359 356 354 350 349 348 347 346 344 342 340 342 24 24 2 345 126 69 77 206 201 227 359 59 96 36 37 328 26 51 25 334 327 28 216 168 338 314 290 324 22 94 149 13 18 222 253
353 356 355 351 350 349 350 348 347 346 342 335 34 59 285 121 64 49 118 215 287 357 57 65 133 103 91 360 330 37 319 285 340 331 52 63 94 293 353 39 222 0 10 37 109 130 166
354 356 356 353 352 352 351 350 349 350 345 42 11 60 323 20 55 27 91 281 328 352 7 57 88 82 137 72 52 76 114 97 333 335 22 21 126 274 270 306 282 312 127 128 110 280 3
355 356 354 354 353 354 353 352 349 352 358 326 39 274 323 78 100 357 317 28 72 31 25 53 72 50 29 72 91 95 55 199 12 30 125 185 311 35 356 351 353 38 349 101 103 80 227
353 353 353 354 354 355 354 353 351 349 354 44 48 21 339 42 41 105 42 15 75 12 65 63 87 63 65 44 3 158 358 265 358 104 46 93 142 168 190 196 163 199 263 60 122 117 217
350 352 353 353 353 356 356 356 355 350 347 75 24 37 178 347 357 33 29 14 52 21 25 37 49 72 99 92 19 175 292 326 351 351 50 92 178 251 259 280 286 247 232 230 201 201 177
348 349 351 352 353 356 357 358 359 355 343 71 64 29 358 336 298 339 3 358 72 352 56 6 102 219 147 163 200 231 165 201 239 22 55 15 183 208 276 87 217 253 255 246 238 271 258
346 347 349 350 352 355 357 360 2 5 3 52 337 7 104 315 344 91 287 301 1 229 91 87 226 164 200 265 220 226 194 187 174 167 186 99 121 75 268 345 329 316 276 143 144 86 239
344 344 346 348 350 353 356 0 3 7 20 5 337 69 56 291 25 126 300 332 334 3 229 14 61 129 245 312 327 60 50 68 102 19 127 133 108 96 216 15 233 263 346 33 123 132 77
343 342 343 345 349 350 352 357 1 3 4 46 331 38 88 300 252 292 253 293 340 318 344 290 11 23 328 41 41 15 355 2 39 43 64 96 122 104 146 201 286 209 325 332 45 265 145
338 340 340 345 348 348 348 353 357 2 1 28 330 300 82 104 249 319 331 337 226 332 343 289 331 328 63 79 71 126 236 204 316 26 57 69 70 112 130 178 217 234 235 235 127 276 182
339 338 341 346 346 345 350 350 351 358 358 357 293 24 100 240 265 158 205 193 130 105 207 307 335 6 47 84 101 167 246 217 216 282 327 18 4 148 179 225 285 203 260 3 122 251 242
336 337 342 339 340 345 348 347 346 353 356 3 292 334 68 259 276 214 231 186 72 140 143 268 31 347 45 77 132 202 159 241 58 245 187 176 148 212 105 169 279 187 338 122 226 267 247
331 335 335 337 332 341 344 340 341 345 356 8 321 332 2 193 253 268 254 246 188 187 133 50 204 198 189 93 135 118 138 77 147 268 317 282 185 191 182 217 232 206 218 254 265 263 284